Regional Weather Roundup
Issued by NWS State College, PA

Home | Current Version | Previous Version | Text Only | Print | Product List | Glossary On
Versions: 1 2 3 4 5 6 7 8 9 10 11 12 13 14 15 16 17 18 19 20 21 22 23 24 25 26 27 28 29 30 31 32 33 34 35 36 37 38 39 40 41 42 43 44 45 46 47 48 49 50
000
ASUS41 KCTP 190510
RWRCTP

REGIONAL WEATHER ROUNDUP
NATIONAL WEATHER SERVICE STATE COLLEGE PA
100 AM EDT SAT APR 19 2014

Note: "fair" indicates few or no clouds below 12,000 feet with no
significant weather and/or obstructions to visibility.

* = STATION THAT DOES NOT REPORT PRECIPITATION /E.G. RAIN...SNOW...ETC/
    THUNDER OR FOG.

PAZ002>004-007>009-013>016-020>023-029>032-190600-
WESTERN PENNSYLVANIA

CITY           SKY/WX    TMP DP  RH WIND       PRES   REMARKS
ERIE           CLEAR     45  38  76 NE6       30.31R
MEADVILLE      NOT AVBL
FRANKLIN*      MOCLDY    45  37  76 N7        30.29S
NEW CASTLE     FAIR      47  39  73 CALM      30.28S
BEAVER COUNTY  NOT AVBL
BUTLER*        MOCLDY    48  36  61 NE7       30.27S
PITTSBURGH INT MOCLDY    53  39  59 N12       30.24R
PITTSBURGH     MOCLDY    55  37  50 N8        30.22S
INDIANA*       MOCLDY    45  36  70 CALM      30.25R
LATROBE        CLEAR     50  36  57 CALM      30.24R
WASHINGTON CO* MOCLDY    43  37  81 CALM      30.25R
$$

PAZ004>006-010>012-017>019-024>028-033>037-041-042-045-046-049>053-190600-
CENTRAL PENNSYLVANIA

CITY           SKY/WX    TMP DP  RH WIND       PRES   REMARKS
BRADFORD       PTCLDY    43  36  76 NW7       30.26S
DUBOIS         MOCLDY    49  38  65 N12       30.25R
CLEARFIELD     MOCLDY    43  34  70 N3        30.24R
JOHNSTOWN      CLOUDY    48  31  51 W3        30.22R
ALTOONA        CLOUDY    46  35  65 CALM      30.24S
STATE COLLEGE  MOCLDY    48  30  50 W6        30.24R
WILLIAMSPORT   CLOUDY    41  33  73 NW3       30.25R
SELINSGROVE    CLOUDY    41  36  82 CALM      30.26R
FT INDIANTOWN  NOT AVBL
CAPITAL CITY   CLOUDY    45  34  65 CALM      30.26S
HARRISBURG     CLOUDY    47  35  63 SE5       30.25F
YORK           CLOUDY    41  34  76 CALM      30.26S
$$

PAZ038>040-043-044-047-048-054-055-060>062-067>071-190600-
EASTERN PENNSYLVANIA

CITY           SKY/WX    TMP DP  RH WIND       PRES   REMARKS
SCRANTON       MOCLDY    42  31  64 CALM      30.23F
MOUNT POCONO   CLOUDY    41  30  65 W10       30.21F
ALLENTOWN      CLOUDY    46  31  55 W3        30.26S
QUAKERTOWN*    CLOUDY    41  34  75 CALM      30.26S
READING        CLOUDY    46  31  55 CALM      30.25F
LANCASTER      CLOUDY    44  31  60 CALM      30.26S
COATESVILLE    NOT AVBL
POTTSTOWN      CLOUDY    45  33  63 CALM      30.28S
BLUE BELL      CLOUDY    45  37  76 CALM      30.26F
DOYLESTOWN     CLOUDY    40  36  86 CALM      30.26S
WILLOW GROVE   NOT AVBL
NORTH PHILA    CLOUDY    43  35  73 CALM      30.29F
PHILADELPHIA   CLOUDY    45  37  73 S10       30.28F
$$



USA.gov is the U.S. government's official web portal to all federal, state and local government web resources and services.